Flag for Denmark Weather past 2 weeks in Odense, Denmark

Now
32 °F

Chilly.


Feels Like: 24 °F
Forecast: 32 / 44 °F
Wind: 9 mph from Southwest

Location: Vamdrup

Current Time: Mar 4, 2015 at 1:44:00 AM

Latest Report: Mar 4, 2015 at 1:20 AM


Visibility: N/A

Pressure: 29.80 "Hg

Humidity: 100%

Dew point: 32 °F

Location of OdenseLocation

Historic Weather in Odense — Graph

°F

Odense temperature yesterday

Maximum temperature yesterday: 43 °F (at 1:50 PM)
Minimum temperature yesterday: 34 °F (at 1:20 AM)
Average temperature yesterday: 36 °F

Past Weeks' High & Low Weather Summary

 TemperatureHumidityPressure
High46 °F (Feb 18, 11:50 AM)100% (Feb 17, 3:50 AM)30.54 "Hg (Feb 17, 3:50 AM)
Low30 °F (Feb 17, 3:50 AM)62% (Feb 18, 12:20 PM)29.15 "Hg (Feb 23, 7:20 AM)
Average38 °F90%29.74 "Hg
* Reported Feb 17 12:20 AM — Mar 4 12:20 AM, Odense, Weather by CustomWeather, © 2015

Note: Actual official high and low records may vary slightly from our data, if they occured in-between our weather recording intervals... More about our weather records

Advertising

Odense weather history for previous 24 hours

 ConditionsComfort  
Time TempWeatherWind HumidityBarometerVisibility
12:20 AM
Wed, Mar 4
34 °FChilly.8 mph93%29.80 "HgN/A
11:50 PM
Tue, Mar 3
34 °FChilly.13 mph100%29.80 "HgN/A
11:20 PM34 °FChilly.8 mph93%29.80 "HgN/A
10:50 PM34 °FChilly.7 mph93%29.80 "HgN/A
10:20 PM34 °FChilly.9 mph100%29.80 "HgN/A
9:50 PM34 °FChilly.8 mph100%29.77 "HgN/A
9:20 PM34 °FChilly.7 mph93%29.77 "HgN/A
8:50 PM34 °FChilly.7 mph93%29.77 "HgN/A
8:20 PM34 °FChilly.7 mph93%29.77 "HgN/A
7:50 PM34 °FChilly.10 mph93%29.77 "HgN/A
7:20 PM34 °FChilly.7 mph93%29.77 "HgN/A
6:50 PM34 °FChilly.7 mph93%29.77 "HgN/A
6:20 PM37 °FChilly.9 mph87%29.77 "HgN/A
5:50 PM37 °FChilly.9 mph87%29.77 "HgN/A
5:20 PM39 °FChilly.13 mph81%29.77 "HgN/A
3:50 PM41 °FScattered showers. Scattered clouds.15 mph70%29.77 "HgN/A
2:50 PM41 °FPassing clouds.18 mph76%29.77 "HgN/A
1:50 PM43 °FScattered clouds.21 mph76%29.77 "HgN/A
12:50 PM37 °FPassing clouds.10 mph87%29.80 "HgN/A
12:20 PM36 °FScattered clouds.10 mph93%29.80 "HgN/A
11:50 AM36 °FSprinkles. Broken clouds.20 mph87%29.77 "Hg4 mi
10:50 AM39 °FPartly sunny.14 mph87%29.77 "HgN/A
10:20 AM37 °FPartly sunny.15 mph87%29.77 "HgN/A
9:50 AM37 °FPartly sunny.13 mph93%29.77 "HgN/A
9:20 AM37 °FPartly sunny.8 mph87%29.74 "HgN/A
8:50 AM37 °FSprinkles. Scattered clouds.12 mph87%29.74 "HgN/A
8:20 AM37 °FSprinkles. Scattered clouds.15 mph87%29.74 "HgN/A
7:50 AM37 °FChilly.15 mph81%29.71 "HgN/A
7:20 AM36 °FChilly.13 mph93%29.71 "HgN/A
6:50 AM36 °FChilly.13 mph87%29.71 "HgN/A
6:20 AM36 °FChilly.13 mph93%29.71 "HgN/A
5:50 AM36 °FChilly.12 mph93%29.68 "HgN/A
5:20 AM36 °FChilly.12 mph93%29.68 "HgN/A
4:50 AM36 °FChilly.13 mph93%29.68 "HgN/A
4:20 AM36 °FChilly.12 mph93%29.65 "HgN/A
3:50 AM36 °FChilly.13 mph93%29.65 "HgN/A
3:20 AM37 °FChilly.15 mph87%29.65 "HgN/A
2:50 AM36 °FChilly.10 mph93%29.62 "HgN/A
2:20 AM36 °FChilly.9 mph93%29.62 "HgN/A
1:50 AM36 °FChilly.12 mph93%29.62 "HgN/A
1:20 AM34 °FChilly.8 mph100%29.59 "HgN/A
Weather by CustomWeather, © 2015

See weather overviewHow to use our weather pages